owner,sensor,date,latitude,longitude,vertical_datum,wind_speed,wind_to_direction,wind_speed_of_gust,qcFlag 
TCOON,ioos:station:TCOON:057:1,2009-07-01T00:00:00Z,28.4460,-96.3961,0.0,6.0,164.0,7.8,'11111222,11111222,11111222' 
TCOON,ioos:station:TCOON:057:1,2009-07-01T01:00:00Z,28.4460,-96.3961,0.0,6.4,164.0,7.1,'11111222,11111222,11111222' 
TCOON,ioos:station:TCOON:057:1,2009-07-01T03:00:00Z,28.4460,-96.3961,0.0,3.6,90.0,4.3,'11111222,11111222,11111222' 
TCOON,ioos:station:TCOON:057:1,2009-07-01T04:00:00Z,28.4460,-96.3961,0.0,1.5,127.0,2.0,'11111222,11111222,11111222' 
TCOON,ioos:station:TCOON:057:1,2009-07-01T05:00:00Z,28.4460,-96.3961,0.0,2.9,166.0,3.7,'11111222,11111222,11111222' 
TCOON,ioos:station:TCOON:057:1,2009-07-01T06:00:00Z,28.4460,-96.3961,0.0,1.6,195.0,2.0,'11111222,11111222,11111222' 
TCOON,ioos:station:TCOON:057:1,2009-07-01T07:00:00Z,28.4460,-96.3961,0.0,2.6,177.0,3.1,'11111222,11111222,11111222' 
TCOON,ioos:station:TCOON:057:1,2009-07-01T08:00:00Z,28.4460,-96.3961,0.0,2.2,204.0,2.5,'11111222,11111222,11111222' 
TCOON,ioos:station:TCOON:057:1,2009-07-01T09:00:00Z,28.4460,-96.3961,0.0,1.7,223.0,2.1,'11111222,11111222,11111222' 
TCOON,ioos:station:TCOON:057:1,2009-07-01T10:00:00Z,28.4460,-96.3961,0.0,1.9,300.0,2.1,'11111222,11111222,11111222' 
TCOON,ioos:station:TCOON:057:1,2009-07-01T11:00:00Z,28.4460,-96.3961,0.0,1.8,302.0,2.1,'11111222,11111222,11111222' 
TCOON,ioos:station:TCOON:057:1,2009-07-01T12:00:00Z,28.4460,-96.3961,0.0,2.2,303.0,2.6,'11111222,11111222,11111222' 
TCOON,ioos:station:TCOON:057:1,2009-07-01T13:00:00Z,28.4460,-96.3961,0.0,2.6,27.0,3.0,'11111222,11111222,11111222' 
TCOON,ioos:station:TCOON:057:1,2009-07-01T14:00:00Z,28.4460,-96.3961,0.0,2.3,33.0,2.5,'11111222,11111222,11111222' 
TCOON,ioos:station:TCOON:057:1,2009-07-01T15:00:00Z,28.4460,-96.3961,0.0,2.8,38.0,3.1,'11111222,11111222,11111222' 
TCOON,ioos:station:TCOON:057:1,2009-07-01T16:00:00Z,28.4460,-96.3961,0.0,2.3,58.0,2.5,'11111222,11111222,11111222' 
TCOON,ioos:station:TCOON:057:1,2009-07-01T18:00:00Z,28.4460,-96.3961,0.0,2.3,104.0,2.5,'11111222,11111222,11111222' 
TCOON,ioos:station:TCOON:057:1,2009-07-01T19:00:00Z,28.4460,-96.3961,0.0,3.8,138.0,4.3,'11111222,11111222,11111222' 
TCOON,ioos:station:TCOON:057:1,2009-07-01T20:00:00Z,28.4460,-96.3961,0.0,5.1,143.0,5.8,'11111222,11111222,11111222' 
TCOON,ioos:station:TCOON:057:1,2009-07-01T21:00:00Z,28.4460,-96.3961,0.0,6.3,155.0,7.0,'11111222,11111222,11111222' 
TCOON,ioos:station:TCOON:057:1,2009-07-01T22:00:00Z,28.4460,-96.3961,0.0,7.5,161.0,8.2,'11111222,11111222,11111222' 
TCOON,ioos:station:TCOON:057:1,2009-07-01T23:00:00Z,28.4460,-96.3961,0.0,6.1,156.0,6.9,'11111222,11111222,11111222' 
TCOON,ioos:station:TCOON:057:1,2009-07-02T00:00:00Z,28.4460,-96.3961,0.0,6.7,147.0,7.5,'11111222,11111222,11111222' 
TCOON,ioos:station:TCOON:057:1,2009-07-02T01:00:00Z,28.4460,-96.3961,0.0,4.2,154.0,4.6,'11111222,11111222,11111222' 
TCOON,ioos:station:TCOON:057:1,2009-07-02T02:00:00Z,28.4460,-96.3961,0.0,3.6,156.0,4.4,'11111222,11111222,11111222' 
TCOON,ioos:station:TCOON:057:1,2009-07-02T03:00:00Z,28.4460,-96.3961,0.0,4.0,138.0,4.5,'11111222,11111222,11111222' 
TCOON,ioos:station:TCOON:057:1,2009-07-02T04:00:00Z,28.4460,-96.3961,0.0,3.5,164.0,4.1,'11111222,11111222,11111222' 
TCOON,ioos:station:TCOON:057:1,2009-07-02T05:00:00Z,28.4460,-96.3961,0.0,4.4,156.0,5.0,'11111222,11111222,11111222' 
TCOON,ioos:station:TCOON:057:1,2009-07-02T06:00:00Z,28.4460,-96.3961,0.0,4.8,156.0,5.7,'11111222,11111222,11111222' 
TCOON,ioos:station:TCOON:057:1,2009-07-02T07:00:00Z,28.4460,-96.3961,0.0,4.4,174.0,5.2,'11111222,11111222,11111222' 
TCOON,ioos:station:TCOON:057:1,2009-07-02T08:00:00Z,28.4460,-96.3961,0.0,2.5,194.0,3.1,'11111222,11111222,11111222' 
TCOON,ioos:station:TCOON:057:1,2009-07-02T09:00:00Z,28.4460,-96.3961,0.0,2.0,201.0,2.4,'11111222,11111222,11111222' 
TCOON,ioos:station:TCOON:057:1,2009-07-02T10:00:00Z,28.4460,-96.3961,0.0,1.6,205.0,1.7,'11111222,11111222,11111222' 
TCOON,ioos:station:TCOON:057:1,2009-07-02T11:00:00Z,28.4460,-96.3961,0.0,0.7,194.0,0.9,'11111222,11111222,11111222' 
TCOON,ioos:station:TCOON:057:1,2009-07-02T12:00:00Z,28.4460,-96.3961,0.0,2.5,265.0,2.9,'11111222,11111222,11111222' 
TCOON,ioos:station:TCOON:057:1,2009-07-02T13:00:00Z,28.4460,-96.3961,0.0,1.5,341.0,1.7,'11111222,11111222,11111222' 
TCOON,ioos:station:TCOON:057:1,2009-07-02T14:00:00Z,28.4460,-96.3961,0.0,2.0,357.0,2.4,'11111222,11111222,11111222' 
TCOON,ioos:station:TCOON:057:1,2009-07-02T15:00:00Z,28.4460,-96.3961,0.0,1.8,46.0,2.1,'11111222,11111222,11111222' 
TCOON,ioos:station:TCOON:057:1,2009-07-02T16:00:00Z,28.4460,-96.3961,0.0,2.1,85.0,2.3,'11111222,11111222,11111222' 
TCOON,ioos:station:TCOON:057:1,2009-07-02T17:00:00Z,28.4460,-96.3961,0.0,3.8,123.0,4.2,'11111222,11111222,11111222' 
TCOON,ioos:station:TCOON:057:1,2009-07-02T18:00:00Z,28.4460,-96.3961,0.0,3.2,118.0,3.6,'11111222,11111222,11111222' 
TCOON,ioos:station:TCOON:057:1,2009-07-02T19:00:00Z,28.4460,-96.3961,0.0,5.5,132.0,6.2,'11111222,11111222,11111222' 
TCOON,ioos:station:TCOON:057:1,2009-07-02T20:00:00Z,28.4460,-96.3961,0.0,6.4,124.0,7.2,'11111222,11111222,11111222' 
TCOON,ioos:station:TCOON:057:1,2009-07-02T21:00:00Z,28.4460,-96.3961,0.0,7.1,142.0,8.5,'11111222,11111222,11111222' 
TCOON,ioos:station:TCOON:057:1,2009-07-02T22:00:00Z,28.4460,-96.3961,0.0,6.8,137.0,7.7,'11111222,11111222,11111222' 
TCOON,ioos:station:TCOON:057:1,2009-07-02T23:00:00Z,28.4460,-96.3961,0.0,6.3,138.0,7.3,'11111222,11111222,11111222' 
TCOON,ioos:station:TCOON:057:1,2009-07-03T00:00:00Z,28.4460,-96.3961,0.0,6.6,130.0,7.5,'11111222,11111222,11111222' 
TCOON,ioos:station:TCOON:057:1,2009-07-03T01:00:00Z,28.4460,-96.3961,0.0,6.1,136.0,6.6,'11111222,11111222,11111222' 
TCOON,ioos:station:TCOON:057:1,2009-07-03T02:00:00Z,28.4460,-96.3961,0.0,5.0,129.0,5.7,'11111222,11111222,11111222' 
TCOON,ioos:station:TCOON:057:1,2009-07-03T03:00:00Z,28.4460,-96.3961,0.0,5.7,137.0,6.5,'11111222,11111222,11111222' 
TCOON,ioos:station:TCOON:057:1,2009-07-03T04:00:00Z,28.4460,-96.3961,0.0,5.7,137.0,6.8,'11111222,11111222,11111222' 
TCOON,ioos:station:TCOON:057:1,2009-07-03T05:00:00Z,28.4460,-96.3961,0.0,6.1,141.0,7.3,'11111222,11111222,11111222' 
TCOON,ioos:station:TCOON:057:1,2009-07-03T06:00:00Z,28.4460,-96.3961,0.0,4.8,134.0,5.3,'11111222,11111222,11111222' 
TCOON,ioos:station:TCOON:057:1,2009-07-03T07:00:00Z,28.4460,-96.3961,0.0,5.5,154.0,5.9,'11111222,11111222,11111222' 
TCOON,ioos:station:TCOON:057:1,2009-07-03T08:00:00Z,28.4460,-96.3961,0.0,4.3,147.0,4.8,'11111222,11111222,11111222' 
TCOON,ioos:station:TCOON:057:1,2009-07-03T09:00:00Z,28.4460,-96.3961,0.0,3.0,161.0,3.5,'11111222,11111222,11111222' 
TCOON,ioos:station:TCOON:057:1,2009-07-03T10:00:00Z,28.4460,-96.3961,0.0,3.3,155.0,3.7,'11111222,11111222,11111222' 
TCOON,ioos:station:TCOON:057:1,2009-07-03T11:00:00Z,28.4460,-96.3961,0.0,2.8,146.0,3.1,'11111222,11111222,11111222' 
TCOON,ioos:station:TCOON:057:1,2009-07-03T12:00:00Z,28.4460,-96.3961,0.0,3.2,143.0,3.8,'11111222,11111222,11111222' 
TCOON,ioos:station:TCOON:057:1,2009-07-03T13:00:00Z,28.4460,-96.3961,0.0,2.5,144.0,3.0,'11111222,11111222,11111222' 
TCOON,ioos:station:TCOON:057:1,2009-07-03T14:00:00Z,28.4460,-96.3961,0.0,3.1,157.0,3.6,'11111222,11111222,11111222' 
TCOON,ioos:station:TCOON:057:1,2009-07-03T15:00:00Z,28.4460,-96.3961,0.0,4.4,150.0,5.3,'11111222,11111222,11111222' 
TCOON,ioos:station:TCOON:057:1,2009-07-03T16:00:00Z,28.4460,-96.3961,0.0,3.8,149.0,4.1,'11111222,11111222,11111222' 
TCOON,ioos:station:TCOON:057:1,2009-07-03T17:00:00Z,28.4460,-96.3961,0.0,4.2,143.0,4.8,'11111222,11111222,11111222' 
TCOON,ioos:station:TCOON:057:1,2009-07-03T18:00:00Z,28.4460,-96.3961,0.0,5.6,150.0,6.4,'11111222,11111222,11111222' 
TCOON,ioos:station:TCOON:057:1,2009-07-03T19:00:00Z,28.4460,-96.3961,0.0,5.1,151.0,5.8,'11111222,11111222,11111222' 
TCOON,ioos:station:TCOON:057:1,2009-07-03T20:00:00Z,28.4460,-96.3961,0.0,4.6,157.0,5.0,'11111222,11111222,11111222' 
TCOON,ioos:station:TCOON:057:1,2009-07-03T21:00:00Z,28.4460,-96.3961,0.0,6.1,155.0,6.7,'11111222,11111222,11111222' 
TCOON,ioos:station:TCOON:057:1,2009-07-03T22:00:00Z,28.4460,-96.3961,0.0,3.8,149.0,4.4,'11111222,11111222,11111222' 
TCOON,ioos:station:TCOON:057:1,2009-07-03T23:00:00Z,28.4460,-96.3961,0.0,5.6,143.0,6.2,'11111222,11111222,11111222' 
TCOON,ioos:station:TCOON:057:1,2009-07-04T00:00:00Z,28.4460,-96.3961,0.0,5.7,130.0,6.5,'11111222,11111222,11111222' 
TCOON,ioos:station:TCOON:057:1,2009-07-04T01:00:00Z,28.4460,-96.3961,0.0,7.5,131.0,8.2,'11111222,11111222,11111222' 
TCOON,ioos:station:TCOON:057:1,2009-07-04T02:00:00Z,28.4460,-96.3961,0.0,7.5,150.0,8.8,'11111222,11111222,11111222' 
TCOON,ioos:station:TCOON:057:1,2009-07-04T03:00:00Z,28.4460,-96.3961,0.0,8.3,142.0,9.6,'11111222,11111222,11111222' 
TCOON,ioos:station:TCOON:057:1,2009-07-04T04:00:00Z,28.4460,-96.3961,0.0,8.4,149.0,9.2,'11111222,11111222,11111222' 
TCOON,ioos:station:TCOON:057:1,2009-07-04T05:00:00Z,28.4460,-96.3961,0.0,8.3,154.0,9.3,'11111222,11111222,11111222' 
TCOON,ioos:station:TCOON:057:1,2009-07-04T06:00:00Z,28.4460,-96.3961,0.0,7.7,152.0,8.5,'11111222,11111222,11111222' 
TCOON,ioos:station:TCOON:057:1,2009-07-04T07:00:00Z,28.4460,-96.3961,0.0,6.7,153.0,7.6,'11111222,11111222,11111222' 
TCOON,ioos:station:TCOON:057:1,2009-07-04T08:00:00Z,28.4460,-96.3961,0.0,7.0,154.0,7.7,'11111222,11111222,11111222' 
TCOON,ioos:station:TCOON:057:1,2009-07-04T09:00:00Z,28.4460,-96.3961,0.0,7.7,173.0,8.5,'11111222,11111222,11111222' 
TCOON,ioos:station:TCOON:057:1,2009-07-04T10:00:00Z,28.4460,-96.3961,0.0,6.7,177.0,7.5,'11111222,11111222,11111222' 
TCOON,ioos:station:TCOON:057:1,2009-07-04T11:00:00Z,28.4460,-96.3961,0.0,6.7,181.0,7.9,'11111222,11111222,11111222' 
TCOON,ioos:station:TCOON:057:1,2009-07-04T12:00:00Z,28.4460,-96.3961,0.0,5.5,187.0,6.8,'11111222,11111222,11111222' 
TCOON,ioos:station:TCOON:057:1,2009-07-04T13:00:00Z,28.4460,-96.3961,0.0,6.2,189.0,7.4,'11111222,11111222,11111222' 
TCOON,ioos:station:TCOON:057:1,2009-07-04T14:00:00Z,28.4460,-96.3961,0.0,8.9,197.0,10.5,'11111222,11111222,11111222' 
TCOON,ioos:station:TCOON:057:1,2009-07-04T15:00:00Z,28.4460,-96.3961,0.0,8.3,189.0,9.5,'11111222,11111222,11111222' 
TCOON,ioos:station:TCOON:057:1,2009-07-04T16:00:00Z,28.4460,-96.3961,0.0,7.5,180.0,9.0,'11111222,11111222,11111222' 
TCOON,ioos:station:TCOON:057:1,2009-07-04T17:00:00Z,28.4460,-96.3961,0.0,6.9,204.0,9.4,'11111222,11111222,11111222' 
TCOON,ioos:station:TCOON:057:1,2009-07-04T18:00:00Z,28.4460,-96.3961,0.0,6.1,172.0,7.6,'11111222,11111222,11111222' 
TCOON,ioos:station:TCOON:057:1,2009-07-04T19:00:00Z,28.4460,-96.3961,0.0,6.3,153.0,7.4,'11111222,11111222,11111222' 
TCOON,ioos:station:TCOON:057:1,2009-07-04T20:00:00Z,28.4460,-96.3961,0.0,6.1,155.0,7.0,'11111222,11111222,11111222' 
TCOON,ioos:station:TCOON:057:1,2009-07-04T21:00:00Z,28.4460,-96.3961,0.0,6.0,158.0,7.3,'11111222,11111222,11111222' 
TCOON,ioos:station:TCOON:057:1,2009-07-04T22:00:00Z,28.4460,-96.3961,0.0,7.1,142.0,8.2,'11111222,11111222,11111222' 
TCOON,ioos:station:TCOON:057:1,2009-07-04T23:00:00Z,28.4460,-96.3961,0.0,8.4,144.0,9.8,'11111222,11111222,11111222' 
TCOON,ioos:station:TCOON:057:1,2009-07-05T00:00:00Z,28.4460,-96.3961,0.0,10.2,147.0,11.3,'11111222,11111222,11111222' 
TCOON,ioos:station:TCOON:057:1,2009-07-05T01:00:00Z,28.4460,-96.3961,0.0,10.4,154.0,12.1,'11111222,11111222,11111222' 
TCOON,ioos:station:TCOON:057:1,2009-07-05T02:00:00Z,28.4460,-96.3961,0.0,10.5,152.0,11.9,'11111222,11111222,11111222' 
TCOON,ioos:station:TCOON:057:1,2009-07-05T03:00:00Z,28.4460,-96.3961,0.0,9.8,164.0,11.5,'11111222,11111222,11111222' 
TCOON,ioos:station:TCOON:057:1,2009-07-05T04:00:00Z,28.4460,-96.3961,0.0,8.4,166.0,9.3,'11111222,11111222,11111222' 
TCOON,ioos:station:TCOON:057:1,2009-07-05T05:00:00Z,28.4460,-96.3961,0.0,9.3,168.0,10.6,'11111222,11111222,11111222' 
TCOON,ioos:station:TCOON:057:1,2009-07-05T06:00:00Z,28.4460,-96.3961,0.0,10.0,166.0,11.7,'11111222,11111222,11111222' 
TCOON,ioos:station:TCOON:057:1,2009-07-05T07:00:00Z,28.4460,-96.3961,0.0,9.3,188.0,10.5,'11111222,11111222,11111222' 
TCOON,ioos:station:TCOON:057:1,2009-07-05T08:00:00Z,28.4460,-96.3961,0.0,8.3,182.0,9.9,'11111222,11111222,11111222' 
TCOON,ioos:station:TCOON:057:1,2009-07-05T09:00:00Z,28.4460,-96.3961,0.0,7.4,192.0,9.4,'11111222,11111222,11111222' 
TCOON,ioos:station:TCOON:057:1,2009-07-05T10:00:00Z,28.4460,-96.3961,0.0,9.7,190.0,11.1,'11111222,11111222,11111222' 
TCOON,ioos:station:TCOON:057:1,2009-07-05T11:00:00Z,28.4460,-96.3961,0.0,6.6,199.0,8.8,'11111222,11111222,11111222' 
TCOON,ioos:station:TCOON:057:1,2009-07-05T12:00:00Z,28.4460,-96.3961,0.0,6.9,198.0,8.6,'11111222,11111222,11111222' 
TCOON,ioos:station:TCOON:057:1,2009-07-05T13:00:00Z,28.4460,-96.3961,0.0,6.9,200.0,8.5,'11111222,11111222,11111222' 
TCOON,ioos:station:TCOON:057:1,2009-07-05T14:00:00Z,28.4460,-96.3961,0.0,8.3,199.0,10.4,'11111222,11111222,11111222' 
TCOON,ioos:station:TCOON:057:1,2009-07-05T15:00:00Z,28.4460,-96.3961,0.0,8.4,205.0,10.4,'11111222,11111222,11111222' 
TCOON,ioos:station:TCOON:057:1,2009-07-05T16:00:00Z,28.4460,-96.3961,0.0,7.3,207.0,9.0,'11111222,11111222,11111222' 
TCOON,ioos:station:TCOON:057:1,2009-07-05T17:00:00Z,28.4460,-96.3961,0.0,7.3,172.0,9.4,'11111222,11111222,11111222' 
TCOON,ioos:station:TCOON:057:1,2009-07-05T18:00:00Z,28.4460,-96.3961,0.0,6.4,173.0,7.1,'11111222,11111222,11111222' 
TCOON,ioos:station:TCOON:057:1,2009-07-05T19:00:00Z,28.4460,-96.3961,0.0,7.3,166.0,9.4,'11111222,11111222,11111222' 
TCOON,ioos:station:TCOON:057:1,2009-07-05T20:00:00Z,28.4460,-96.3961,0.0,8.8,163.0,10.7,'11111222,11111222,11111222' 
TCOON,ioos:station:TCOON:057:1,2009-07-05T21:00:00Z,28.4460,-96.3961,0.0,9.0,167.0,10.4,'11111222,11111222,11111222' 
TCOON,ioos:station:TCOON:057:1,2009-07-05T22:00:00Z,28.4460,-96.3961,0.0,8.7,164.0,10.2,'11111222,11111222,11111222' 
TCOON,ioos:station:TCOON:057:1,2009-07-05T23:00:00Z,28.4460,-96.3961,0.0,9.6,162.0,11.0,'11111222,11111222,11111222' 
TCOON,ioos:station:TCOON:057:1,2009-07-06T00:00:00Z,28.4460,-96.3961,0.0,9.3,162.0,10.8,'11111222,11111222,11111222' 
TCOON,ioos:station:TCOON:057:1,2009-07-06T01:00:00Z,28.4460,-96.3961,0.0,9.6,165.0,11.0,'11111222,11111222,11111222' 
TCOON,ioos:station:TCOON:057:1,2009-07-06T02:00:00Z,28.4460,-96.3961,0.0,7.3,169.0,8.5,'11111222,11111222,11111222' 
TCOON,ioos:station:TCOON:057:1,2009-07-06T03:00:00Z,28.4460,-96.3961,0.0,7.6,167.0,9.0,'11111222,11111222,11111222' 
TCOON,ioos:station:TCOON:057:1,2009-07-06T04:00:00Z,28.4460,-96.3961,0.0,8.6,170.0,9.9,'11111222,11111222,11111222' 
TCOON,ioos:station:TCOON:057:1,2009-07-06T05:00:00Z,28.4460,-96.3961,0.0,8.0,168.0,9.4,'11111222,11111222,11111222' 
TCOON,ioos:station:TCOON:057:1,2009-07-06T06:00:00Z,28.4460,-96.3961,0.0,9.3,170.0,10.7,'11111222,11111222,11111222' 
TCOON,ioos:station:TCOON:057:1,2009-07-06T07:00:00Z,28.4460,-96.3961,0.0,7.5,177.0,9.6,'11111222,11111222,11111222' 
TCOON,ioos:station:TCOON:057:1,2009-07-06T08:00:00Z,28.4460,-96.3961,0.0,7.9,185.0,9.5,'11111222,11111222,11111222' 
TCOON,ioos:station:TCOON:057:1,2009-07-06T09:00:00Z,28.4460,-96.3961,0.0,7.3,189.0,8.6,'11111222,11111222,11111222' 
TCOON,ioos:station:TCOON:057:1,2009-07-06T10:00:00Z,28.4460,-96.3961,0.0,6.0,196.0,7.2,'11111222,11111222,11111222' 
TCOON,ioos:station:TCOON:057:1,2009-07-06T11:00:00Z,28.4460,-96.3961,0.0,6.9,192.0,8.3,'11111222,11111222,11111222' 
TCOON,ioos:station:TCOON:057:1,2009-07-06T12:00:00Z,28.4460,-96.3961,0.0,7.1,195.0,8.7,'11111222,11111222,11111222' 
TCOON,ioos:station:TCOON:057:1,2009-07-06T13:00:00Z,28.4460,-96.3961,0.0,6.6,192.0,7.4,'11111222,11111222,11111222' 
TCOON,ioos:station:TCOON:057:1,2009-07-06T14:00:00Z,28.4460,-96.3961,0.0,8.3,195.0,9.4,'11111222,11111222,11111222' 
TCOON,ioos:station:TCOON:057:1,2009-07-06T15:00:00Z,28.4460,-96.3961,0.0,6.7,190.0,7.6,'11111222,11111222,11111222' 
TCOON,ioos:station:TCOON:057:1,2009-07-06T16:00:00Z,28.4460,-96.3961,0.0,4.9,212.0,6.4,'11111222,11111222,11111222' 
TCOON,ioos:station:TCOON:057:1,2009-07-06T17:00:00Z,28.4460,-96.3961,0.0,4.4,229.0,5.3,'11111222,11111222,11111222' 
TCOON,ioos:station:TCOON:057:1,2009-07-06T18:00:00Z,28.4460,-96.3961,0.0,5.0,214.0,6.2,'11111222,11111222,11111222' 
TCOON,ioos:station:TCOON:057:1,2009-07-06T19:00:00Z,28.4460,-96.3961,0.0,6.4,177.0,7.5,'11111222,11111222,11111222' 
TCOON,ioos:station:TCOON:057:1,2009-07-06T20:00:00Z,28.4460,-96.3961,0.0,5.3,144.0,6.5,'11111222,11111222,11111222' 
TCOON,ioos:station:TCOON:057:1,2009-07-06T21:00:00Z,28.4460,-96.3961,0.0,7.7,147.0,8.7,'11111222,11111222,11111222' 
TCOON,ioos:station:TCOON:057:1,2009-07-06T22:00:00Z,28.4460,-96.3961,0.0,7.4,152.0,8.6,'11111222,11111222,11111222' 
TCOON,ioos:station:TCOON:057:1,2009-07-06T23:00:00Z,28.4460,-96.3961,0.0,6.3,165.0,7.5,'11111222,11111222,11111222' 
TCOON,ioos:station:TCOON:057:1,2009-07-07T00:00:00Z,28.4460,-96.3961,0.0,7.6,155.0,8.5,'11111222,11111222,11111222' 
TCOON,ioos:station:TCOON:057:1,2009-07-07T01:00:00Z,28.4460,-96.3961,0.0,7.7,162.0,8.7,'11111222,11111222,11111222' 
TCOON,ioos:station:TCOON:057:1,2009-07-07T02:00:00Z,28.4460,-96.3961,0.0,6.1,162.0,7.6,'11111222,11111222,11111222' 
TCOON,ioos:station:TCOON:057:1,2009-07-07T03:00:00Z,28.4460,-96.3961,0.0,5.8,162.0,7.2,'11111222,11111222,11111222' 
TCOON,ioos:station:TCOON:057:1,2009-07-07T04:00:00Z,28.4460,-96.3961,0.0,6.3,162.0,7.5,'11111222,11111222,11111222' 
TCOON,ioos:station:TCOON:057:1,2009-07-07T05:00:00Z,28.4460,-96.3961,0.0,6.2,177.0,7.2,'11111222,11111222,11111222' 
TCOON,ioos:station:TCOON:057:1,2009-07-07T06:00:00Z,28.4460,-96.3961,0.0,4.1,196.0,5.0,'11111222,11111222,11111222' 
TCOON,ioos:station:TCOON:057:1,2009-07-07T07:00:00Z,28.4460,-96.3961,0.0,5.2,195.0,7.1,'11111222,11111222,11111222' 
TCOON,ioos:station:TCOON:057:1,2009-07-07T08:00:00Z,28.4460,-96.3961,0.0,5.4,203.0,6.8,'11111222,11111222,11111222' 
TCOON,ioos:station:TCOON:057:1,2009-07-07T09:00:00Z,28.4460,-96.3961,0.0,4.9,194.0,5.7,'11111222,11111222,11111222' 
TCOON,ioos:station:TCOON:057:1,2009-07-07T10:00:00Z,28.4460,-96.3961,0.0,3.6,205.0,4.6,'11111222,11111222,11111222' 
TCOON,ioos:station:TCOON:057:1,2009-07-07T11:00:00Z,28.4460,-96.3961,0.0,2.5,205.0,3.3,'11111222,11111222,11111222' 
TCOON,ioos:station:TCOON:057:1,2009-07-07T12:00:00Z,28.4460,-96.3961,0.0,4.3,197.0,5.3,'11111222,11111222,11111222' 
TCOON,ioos:station:TCOON:057:1,2009-07-07T13:00:00Z,28.4460,-96.3961,0.0,3.3,202.0,4.1,'11111222,11111222,11111222' 
TCOON,ioos:station:TCOON:057:1,2009-07-07T14:00:00Z,28.4460,-96.3961,0.0,3.9,219.0,4.7,'11111222,11111222,11111222' 
TCOON,ioos:station:TCOON:057:1,2009-07-07T15:00:00Z,28.4460,-96.3961,0.0,3.2,204.0,3.7,'11111222,11111222,11111222' 
TCOON,ioos:station:TCOON:057:1,2009-07-07T16:00:00Z,28.4460,-96.3961,0.0,3.9,170.0,4.7,'11111222,11111222,11111222' 
TCOON,ioos:station:TCOON:057:1,2009-07-07T17:00:00Z,28.4460,-96.3961,0.0,4.0,145.0,4.6,'11111222,11111222,11111222' 
TCOON,ioos:station:TCOON:057:1,2009-07-07T18:00:00Z,28.4460,-96.3961,0.0,3.3,157.0,4.0,'11111222,11111222,11111222' 
TCOON,ioos:station:TCOON:057:1,2009-07-07T19:00:00Z,28.4460,-96.3961,0.0,5.1,149.0,6.0,'11111222,11111222,11111222' 
TCOON,ioos:station:TCOON:057:1,2009-07-07T20:00:00Z,28.4460,-96.3961,0.0,6.4,146.0,8.0,'11111222,11111222,11111222' 
TCOON,ioos:station:TCOON:057:1,2009-07-07T21:00:00Z,28.4460,-96.3961,0.0,6.1,148.0,7.2,'11111222,11111222,11111222' 
TCOON,ioos:station:TCOON:057:1,2009-07-07T22:00:00Z,28.4460,-96.3961,0.0,4.8,145.0,5.5,'11111222,11111222,11111222' 
TCOON,ioos:station:TCOON:057:1,2009-07-07T23:00:00Z,28.4460,-96.3961,0.0,3.3,142.0,4.0,'11111222,11111222,11111222' 
TCOON,ioos:station:TCOON:057:1,2009-07-08T00:00:00Z,28.4460,-96.3961,0.0,3.8,140.0,4.6,'11111222,11111222,11111222' 
TCOON,ioos:station:TCOON:057:1,2009-07-08T01:00:00Z,28.4460,-96.3961,0.0,2.9,132.0,3.3,'11111222,11111222,11111222' 
TCOON,ioos:station:TCOON:057:1,2009-07-08T02:00:00Z,28.4460,-96.3961,0.0,3.7,136.0,4.4,'11111222,11111222,11111222' 
TCOON,ioos:station:TCOON:057:1,2009-07-08T03:00:00Z,28.4460,-96.3961,0.0,3.3,148.0,4.0,'11111222,11111222,11111222' 
TCOON,ioos:station:TCOON:057:1,2009-07-08T04:00:00Z,28.4460,-96.3961,0.0,4.5,159.0,5.2,'11111222,11111222,11111222' 
TCOON,ioos:station:TCOON:057:1,2009-07-08T05:00:00Z,28.4460,-96.3961,0.0,4.1,162.0,4.7,'11111222,11111222,11111222' 
TCOON,ioos:station:TCOON:057:1,2009-07-08T06:00:00Z,28.4460,-96.3961,0.0,5.8,187.0,6.4,'11111222,11111222,11111222' 
TCOON,ioos:station:TCOON:057:1,2009-07-08T07:00:00Z,28.4460,-96.3961,0.0,5.1,184.0,5.9,'11111222,11111222,11111222' 
TCOON,ioos:station:TCOON:057:1,2009-07-08T08:00:00Z,28.4460,-96.3961,0.0,5.0,188.0,6.4,'11111222,11111222,11111222' 
TCOON,ioos:station:TCOON:057:1,2009-07-08T09:00:00Z,28.4460,-96.3961,0.0,4.9,189.0,5.9,'11111222,11111222,11111222' 
TCOON,ioos:station:TCOON:057:1,2009-07-08T10:00:00Z,28.4460,-96.3961,0.0,4.8,190.0,5.9,'11111222,11111222,11111222' 
TCOON,ioos:station:TCOON:057:1,2009-07-08T11:00:00Z,28.4460,-96.3961,0.0,3.5,188.0,4.2,'11111222,11111222,11111222' 
TCOON,ioos:station:TCOON:057:1,2009-07-08T12:00:00Z,28.4460,-96.3961,0.0,3.4,169.0,4.0,'11111222,11111222,11111222' 
TCOON,ioos:station:TCOON:057:1,2009-07-08T13:00:00Z,28.4460,-96.3961,0.0,3.0,166.0,3.4,'11111222,11111222,11111222' 
TCOON,ioos:station:TCOON:057:1,2009-07-08T14:00:00Z,28.4460,-96.3961,0.0,4.5,171.0,4.9,'11111222,11111222,11111222' 
TCOON,ioos:station:TCOON:057:1,2009-07-08T15:00:00Z,28.4460,-96.3961,0.0,4.9,182.0,6.0,'11111222,11111222,11111222' 
TCOON,ioos:station:TCOON:057:1,2009-07-08T16:00:00Z,28.4460,-96.3961,0.0,5.8,167.0,7.3,'11111222,11111222,11111222' 
TCOON,ioos:station:TCOON:057:1,2009-07-08T17:00:00Z,28.4460,-96.3961,0.0,6.1,163.0,7.1,'11111222,11111222,11111222' 
TCOON,ioos:station:TCOON:057:1,2009-07-08T18:00:00Z,28.4460,-96.3961,0.0,7.0,157.0,8.0,'11111222,11111222,11111222' 
TCOON,ioos:station:TCOON:057:1,2009-07-08T19:00:00Z,28.4460,-96.3961,0.0,5.8,162.0,6.9,'11111222,11111222,11111222' 
TCOON,ioos:station:TCOON:057:1,2009-07-08T20:00:00Z,28.4460,-96.3961,0.0,6.6,167.0,7.4,'11111222,11111222,11111222' 
TCOON,ioos:station:TCOON:057:1,2009-07-08T21:00:00Z,28.4460,-96.3961,0.0,6.1,155.0,7.0,'11111222,11111222,11111222' 
TCOON,ioos:station:TCOON:057:1,2009-07-08T22:00:00Z,28.4460,-96.3961,0.0,5.5,147.0,6.2,'11111222,11111222,11111222' 
TCOON,ioos:station:TCOON:057:1,2009-07-08T23:00:00Z,28.4460,-96.3961,0.0,6.9,155.0,8.0,'11111222,11111222,11111222' 
TCOON,ioos:station:TCOON:057:1,2009-07-09T00:00:00Z,28.4460,-96.3961,0.0,7.1,155.0,8.6,'11111222,11111222,11111222' 
TCOON,ioos:station:TCOON:057:1,2009-07-09T01:00:00Z,28.4460,-96.3961,0.0,5.8,153.0,6.6,'11111222,11111222,11111222' 
TCOON,ioos:station:TCOON:057:1,2009-07-09T02:00:00Z,28.4460,-96.3961,0.0,6.0,162.0,6.8,'11111222,11111222,11111222' 
TCOON,ioos:station:TCOON:057:1,2009-07-09T03:00:00Z,28.4460,-96.3961,0.0,4.9,159.0,5.6,'11111222,11111222,11111222' 
TCOON,ioos:station:TCOON:057:1,2009-07-09T04:00:00Z,28.4460,-96.3961,0.0,5.2,161.0,6.0,'11111222,11111222,11111222' 
TCOON,ioos:station:TCOON:057:1,2009-07-09T05:00:00Z,28.4460,-96.3961,0.0,5.8,175.0,6.9,'11111222,11111222,11111222' 
TCOON,ioos:station:TCOON:057:1,2009-07-09T06:00:00Z,28.4460,-96.3961,0.0,5.2,177.0,6.1,'11111222,11111222,11111222' 
TCOON,ioos:station:TCOON:057:1,2009-07-09T07:00:00Z,28.4460,-96.3961,0.0,6.7,179.0,8.3,'11111222,11111222,11111222' 
TCOON,ioos:station:TCOON:057:1,2009-07-09T08:00:00Z,28.4460,-96.3961,0.0,4.7,184.0,5.5,'11111222,11111222,11111222' 
TCOON,ioos:station:TCOON:057:1,2009-07-09T09:00:00Z,28.4460,-96.3961,0.0,4.3,191.0,5.6,'11111222,11111222,11111222' 
TCOON,ioos:station:TCOON:057:1,2009-07-09T10:00:00Z,28.4460,-96.3961,0.0,2.0,214.0,2.4,'11111222,11111222,11111222' 
TCOON,ioos:station:TCOON:057:1,2009-07-09T11:00:00Z,28.4460,-96.3961,0.0,4.3,188.0,5.1,'11111222,11111222,11111222' 
TCOON,ioos:station:TCOON:057:1,2009-07-09T12:00:00Z,28.4460,-96.3961,0.0,2.4,187.0,2.8,'11111222,11111222,11111222' 
TCOON,ioos:station:TCOON:057:1,2009-07-09T13:00:00Z,28.4460,-96.3961,0.0,3.7,190.0,4.6,'11111222,11111222,11111222' 